Year,Month,Day,Hour,Minute,Value (Times are PST for temperature in C)
2006,12,13,00,00,6.60
2006,12,13,00,01,6.70
2006,12,13,00,02,6.70
2006,12,13,00,03,6.70
2006,12,13,00,04,6.70
2006,12,13,00,05,6.70
2006,12,13,00,06,6.70
2006,12,13,00,07,6.80
2006,12,13,00,08,6.80
2006,12,13,00,09,6.80
2006,12,13,00,10,6.80
2006,12,13,00,11,6.80
2006,12,13,00,12,6.80
2006,12,13,00,13,6.80
2006,12,13,00,14,6.80
2006,12,13,00,15,6.80
2006,12,13,00,16,6.80
2006,12,13,00,17,6.80
2006,12,13,00,18,6.80
2006,12,13,00,19,6.80
2006,12,13,00,20,6.80
2006,12,13,00,21,6.80
2006,12,13,00,22,6.80
2006,12,13,00,23,6.80
2006,12,13,00,24,6.80
2006,12,13,00,25,6.80
2006,12,13,00,26,6.80
2006,12,13,00,27,6.90
2006,12,13,00,28,6.90
2006,12,13,00,29,6.90
2006,12,13,00,30,6.90
2006,12,13,00,31,6.90
2006,12,13,00,32,6.90
2006,12,13,00,33,7.00
2006,12,13,00,34,7.00
2006,12,13,00,35,7.00
2006,12,13,00,36,7.00
2006,12,13,00,37,7.00
2006,12,13,00,38,7.00
2006,12,13,00,39,7.00
2006,12,13,00,40,7.10
2006,12,13,00,41,7.10
2006,12,13,00,42,7.10
2006,12,13,00,43,7.10
2006,12,13,00,44,7.10
2006,12,13,00,45,7.10
2006,12,13,00,46,7.10
2006,12,13,00,47,7.20
2006,12,13,00,48,7.20
2006,12,13,00,49,7.20
2006,12,13,00,50,7.20
2006,12,13,00,51,7.20
2006,12,13,00,52,7.20
2006,12,13,00,53,7.20
2006,12,13,00,54,7.20
2006,12,13,00,55,7.20
2006,12,13,00,56,7.20
2006,12,13,00,57,7.20
2006,12,13,00,58,7.20
2006,12,13,00,59,7.20
2006,12,13,01,00,7.20
2006,12,13,01,01,7.20
2006,12,13,01,02,7.20
2006,12,13,01,03,7.20
2006,12,13,01,04,7.20
2006,12,13,01,05,7.20
2006,12,13,01,06,7.20
2006,12,13,01,07,7.20
2006,12,13,01,08,7.20
2006,12,13,01,09,7.20
2006,12,13,01,10,7.20
2006,12,13,01,11,7.20
2006,12,13,01,12,7.20
2006,12,13,01,13,7.20
2006,12,13,01,14,7.20
2006,12,13,01,15,7.30
2006,12,13,01,16,7.30
2006,12,13,01,17,7.30
2006,12,13,01,18,7.30
2006,12,13,01,19,7.30
2006,12,13,01,20,7.30
2006,12,13,01,21,7.30
2006,12,13,01,22,7.30
2006,12,13,01,23,7.30
2006,12,13,01,24,7.30
2006,12,13,01,25,7.30
2006,12,13,01,26,7.30
2006,12,13,01,27,7.30
2006,12,13,01,28,7.30
2006,12,13,01,29,7.30
2006,12,13,01,30,7.30
2006,12,13,01,31,7.30
2006,12,13,01,32,7.30
2006,12,13,01,33,7.30
2006,12,13,01,34,7.30
2006,12,13,01,35,7.30
2006,12,13,01,36,7.30
2006,12,13,01,37,7.30
2006,12,13,01,38,7.30
2006,12,13,01,39,7.30
2006,12,13,01,40,7.30
2006,12,13,01,41,7.30
2006,12,13,01,42,7.30
2006,12,13,01,43,7.30
2006,12,13,01,44,7.30
2006,12,13,01,45,7.30
2006,12,13,01,46,7.30
2006,12,13,01,47,7.30
2006,12,13,01,48,7.30
2006,12,13,01,49,7.30
2006,12,13,01,50,7.30
2006,12,13,01,51,7.40
2006,12,13,01,52,7.40
2006,12,13,01,53,7.40
2006,12,13,01,54,7.40
2006,12,13,01,55,7.40
2006,12,13,01,56,7.50
2006,12,13,01,57,7.50
2006,12,13,01,58,7.50
2006,12,13,01,59,7.60
2006,12,13,02,00,7.60
2006,12,13,02,01,7.60
2006,12,13,02,02,7.60
2006,12,13,02,03,7.70
2006,12,13,02,04,7.70
2006,12,13,02,05,7.70
2006,12,13,02,06,7.70
2006,12,13,02,07,7.70
2006,12,13,02,08,7.70
2006,12,13,02,09,7.70
2006,12,13,02,10,7.70
2006,12,13,02,11,7.70
2006,12,13,02,12,7.70
2006,12,13,02,13,7.70
2006,12,13,02,14,7.70
2006,12,13,02,15,7.70
2006,12,13,02,16,7.70
2006,12,13,02,17,7.70
2006,12,13,02,18,7.70
2006,12,13,02,19,7.70
2006,12,13,02,20,7.70
2006,12,13,02,21,7.70
2006,12,13,02,22,7.70
2006,12,13,02,23,7.70
2006,12,13,02,24,7.60
2006,12,13,02,25,7.70
2006,12,13,02,26,7.70
2006,12,13,02,27,7.70
2006,12,13,02,28,7.70
2006,12,13,02,29,7.70
2006,12,13,02,30,7.70
2006,12,13,02,31,7.80
2006,12,13,02,32,7.80
2006,12,13,02,33,7.80
2006,12,13,02,34,7.80
2006,12,13,02,35,7.80
2006,12,13,02,36,7.80
2006,12,13,02,37,7.80
2006,12,13,02,38,7.80
2006,12,13,02,39,7.80
2006,12,13,02,40,7.80
2006,12,13,02,41,7.80
2006,12,13,02,42,7.80
2006,12,13,02,43,7.80
2006,12,13,02,44,7.80
2006,12,13,02,45,7.80
2006,12,13,02,46,7.80
2006,12,13,02,47,7.80
2006,12,13,02,48,7.90
2006,12,13,02,49,8.00
2006,12,13,02,50,8.00
2006,12,13,02,51,8.10
2006,12,13,02,52,8.10
2006,12,13,02,53,8.10
2006,12,13,02,54,8.10
2006,12,13,02,55,8.20
2006,12,13,02,56,8.20
2006,12,13,02,57,8.20
2006,12,13,02,58,8.30
2006,12,13,02,59,8.30
2006,12,13,03,00,8.40
2006,12,13,03,01,8.40
2006,12,13,03,02,8.50
2006,12,13,03,03,8.50
2006,12,13,03,04,8.50
2006,12,13,03,05,8.60
2006,12,13,03,06,8.60
2006,12,13,03,07,8.60
2006,12,13,03,08,8.70
2006,12,13,03,09,8.70
2006,12,13,03,10,8.70
2006,12,13,03,11,8.80
2006,12,13,03,12,8.90
2006,12,13,03,13,9.00
2006,12,13,03,14,9.00
2006,12,13,03,15,9.00
2006,12,13,03,16,9.10
2006,12,13,03,17,9.10
2006,12,13,03,18,9.20
2006,12,13,03,19,9.20
2006,12,13,03,20,9.20
2006,12,13,03,21,9.30
2006,12,13,03,22,9.30
2006,12,13,03,23,9.30
2006,12,13,03,24,9.30
2006,12,13,03,25,9.40
2006,12,13,03,26,9.40
2006,12,13,03,27,9.40
2006,12,13,03,28,9.40
2006,12,13,03,29,9.40
2006,12,13,03,30,9.40
2006,12,13,03,31,9.40
2006,12,13,03,32,9.40
2006,12,13,03,33,9.40
2006,12,13,03,34,9.40
2006,12,13,03,35,9.40
2006,12,13,03,36,9.50
2006,12,13,03,37,9.50
2006,12,13,03,38,9.50
2006,12,13,03,39,9.50
2006,12,13,03,40,9.50
2006,12,13,03,41,9.50
2006,12,13,03,42,9.50
2006,12,13,03,43,9.50
2006,12,13,03,44,9.50
2006,12,13,03,45,9.50
2006,12,13,03,46,9.50
2006,12,13,03,47,9.50
2006,12,13,03,48,9.50
2006,12,13,03,49,9.50
2006,12,13,03,50,9.60
2006,12,13,03,51,9.60
2006,12,13,03,52,9.60
2006,12,13,03,53,9.70
2006,12,13,03,54,9.70
2006,12,13,03,55,9.70
2006,12,13,03,56,9.70
2006,12,13,03,57,9.70
2006,12,13,03,58,9.70
2006,12,13,03,59,9.70
2006,12,13,04,00,9.70
2006,12,13,04,01,9.70
2006,12,13,04,02,9.60
2006,12,13,04,03,9.60
2006,12,13,04,04,9.60
2006,12,13,04,05,9.60
2006,12,13,04,06,9.60
2006,12,13,04,07,9.60
2006,12,13,04,08,9.60
2006,12,13,04,09,9.60
2006,12,13,04,10,9.70
2006,12,13,04,11,9.60
2006,12,13,04,12,9.60
2006,12,13,04,13,9.60
2006,12,13,04,14,9.60
2006,12,13,04,15,9.60
2006,12,13,04,16,9.50
2006,12,13,04,17,9.50
2006,12,13,04,18,9.50
2006,12,13,04,19,9.50
2006,12,13,04,20,9.50
2006,12,13,04,21,9.50
2006,12,13,04,22,9.40
2006,12,13,04,23,9.40
2006,12,13,04,24,9.40
2006,12,13,04,25,9.30
2006,12,13,04,26,9.30
2006,12,13,04,27,9.20
2006,12,13,04,28,9.20
2006,12,13,04,29,9.30
2006,12,13,04,30,9.30
2006,12,13,04,31,9.30
2006,12,13,04,32,9.20
2006,12,13,04,33,9.20
2006,12,13,04,34,9.20
2006,12,13,04,35,9.20
2006,12,13,04,36,9.20
2006,12,13,04,37,9.20
2006,12,13,04,38,9.20
2006,12,13,04,39,9.20
2006,12,13,04,40,9.20
2006,12,13,04,41,9.20
2006,12,13,04,42,9.10
2006,12,13,04,43,9.10
2006,12,13,04,44,9.00
2006,12,13,04,45,9.00
2006,12,13,04,46,8.90
2006,12,13,04,47,8.90
2006,12,13,04,48,8.80
2006,12,13,04,49,8.90
2006,12,13,04,50,8.90
2006,12,13,04,51,8.80
2006,12,13,04,52,8.80
2006,12,13,04,53,8.70
2006,12,13,04,54,8.70
2006,12,13,04,55,8.70
2006,12,13,04,56,8.70
2006,12,13,04,57,8.70
2006,12,13,04,58,8.70
2006,12,13,04,59,8.70
2006,12,13,05,00,8.70
2006,12,13,05,01,8.70
2006,12,13,05,02,8.70
2006,12,13,05,03,8.70
2006,12,13,05,04,8.70
2006,12,13,05,05,8.70
2006,12,13,05,06,8.70
2006,12,13,05,07,8.70
2006,12,13,05,08,8.70
2006,12,13,05,09,8.70
2006,12,13,05,10,8.70
2006,12,13,05,11,8.70
2006,12,13,05,12,8.70
2006,12,13,05,13,8.80
2006,12,13,05,14,8.90
2006,12,13,05,15,8.90
2006,12,13,05,16,8.90
2006,12,13,05,17,8.90
2006,12,13,05,18,8.90
2006,12,13,05,19,8.90
2006,12,13,05,20,9.00
2006,12,13,05,21,9.00
2006,12,13,05,22,9.00
2006,12,13,05,23,9.00
2006,12,13,05,24,9.00
2006,12,13,05,25,9.00
2006,12,13,05,26,8.90
2006,12,13,05,27,8.90
2006,12,13,05,28,8.90
2006,12,13,05,29,8.90
2006,12,13,05,30,8.90
2006,12,13,05,31,8.90
2006,12,13,05,32,8.90
2006,12,13,05,33,8.90
2006,12,13,05,34,8.90
2006,12,13,05,35,8.90
2006,12,13,05,36,8.90
2006,12,13,05,37,8.90
2006,12,13,05,38,8.80
2006,12,13,05,39,8.80
2006,12,13,05,40,8.80
2006,12,13,05,41,8.80
2006,12,13,05,42,8.90
2006,12,13,05,43,8.90
2006,12,13,05,44,8.90
2006,12,13,05,45,8.90
2006,12,13,05,46,8.90
2006,12,13,05,47,8.80
2006,12,13,05,48,8.90
2006,12,13,05,49,8.90
2006,12,13,05,50,8.90
2006,12,13,05,51,9.00
2006,12,13,05,52,9.00
2006,12,13,05,53,9.00
2006,12,13,05,54,9.00
2006,12,13,05,55,9.00
2006,12,13,05,56,9.00
2006,12,13,05,57,9.00
2006,12,13,05,58,9.00
2006,12,13,05,59,9.10
2006,12,13,06,00,9.10
2006,12,13,06,01,9.10
2006,12,13,06,02,9.00
2006,12,13,06,03,9.00
2006,12,13,06,04,9.00
2006,12,13,06,05,9.00
2006,12,13,06,06,9.00
2006,12,13,06,07,9.00
2006,12,13,06,08,9.10
2006,12,13,06,09,9.10
2006,12,13,06,10,9.10
2006,12,13,06,11,9.20
2006,12,13,06,12,9.20
2006,12,13,06,13,9.20
2006,12,13,06,14,9.20
2006,12,13,06,15,9.20
2006,12,13,06,16,9.20
2006,12,13,06,17,9.20
2006,12,13,06,18,9.20
2006,12,13,06,19,9.20
2006,12,13,06,20,9.30
2006,12,13,06,21,9.30
2006,12,13,06,22,9.30
2006,12,13,06,23,9.30
2006,12,13,06,24,9.30
2006,12,13,06,25,9.30
2006,12,13,06,26,9.30
2006,12,13,06,27,9.20
2006,12,13,06,28,9.20
2006,12,13,06,29,9.30
2006,12,13,06,30,9.40
2006,12,13,06,31,9.40
2006,12,13,06,32,9.40
2006,12,13,06,33,9.40
2006,12,13,06,34,9.40
2006,12,13,06,35,9.40
2006,12,13,06,36,9.40
2006,12,13,06,37,9.40
2006,12,13,06,38,9.50
2006,12,13,06,39,9.50
2006,12,13,06,40,9.50
2006,12,13,06,41,9.40
2006,12,13,06,42,9.40
2006,12,13,06,43,9.30
2006,12,13,06,44,9.20
2006,12,13,06,45,9.20
2006,12,13,06,46,9.10
2006,12,13,06,47,9.00
2006,12,13,06,48,9.00
2006,12,13,06,49,8.90
2006,12,13,06,50,8.80
2006,12,13,06,51,8.70
2006,12,13,06,52,8.60
2006,12,13,06,53,8.50
2006,12,13,06,54,8.40
2006,12,13,06,55,8.30
2006,12,13,06,56,8.30
2006,12,13,06,57,8.20
2006,12,13,06,58,8.20
2006,12,13,06,59,8.20
2006,12,13,07,00,8.20
2006,12,13,07,01,8.10
2006,12,13,07,02,8.10
2006,12,13,07,03,8.10
2006,12,13,07,04,8.10
2006,12,13,07,05,8.10
2006,12,13,07,06,8.10
2006,12,13,07,07,8.10
2006,12,13,07,08,8.10
2006,12,13,07,09,8.10
2006,12,13,07,10,8.20
2006,12,13,07,11,8.20
2006,12,13,07,12,8.20
2006,12,13,07,13,8.20
2006,12,13,07,14,8.20
2006,12,13,07,15,8.20
2006,12,13,07,16,8.30
2006,12,13,07,17,8.30
2006,12,13,07,18,8.40
2006,12,13,07,19,8.40
2006,12,13,07,20,8.40
2006,12,13,07,21,8.40
2006,12,13,07,22,8.50
2006,12,13,07,23,8.60
2006,12,13,07,24,8.60
2006,12,13,07,25,8.70
2006,12,13,07,26,8.70
2006,12,13,07,27,8.70
2006,12,13,07,28,8.70
2006,12,13,07,29,8.70
2006,12,13,07,30,8.70
2006,12,13,07,31,8.70
2006,12,13,07,32,8.80
2006,12,13,07,33,8.80
2006,12,13,07,34,8.80
2006,12,13,07,35,8.90
2006,12,13,07,36,8.80
2006,12,13,07,37,8.80
2006,12,13,07,38,8.80
2006,12,13,07,39,8.90
2006,12,13,07,40,8.90
2006,12,13,07,41,8.90
2006,12,13,07,42,8.90
2006,12,13,07,43,8.90
2006,12,13,07,44,9.00
2006,12,13,07,45,9.00
2006,12,13,07,46,8.90
2006,12,13,07,47,8.90
2006,12,13,07,48,8.90
2006,12,13,07,49,8.90
2006,12,13,07,50,8.90
2006,12,13,07,51,8.90
2006,12,13,07,52,8.90
2006,12,13,07,53,8.80
2006,12,13,07,54,8.80
2006,12,13,07,55,8.80
2006,12,13,07,56,8.80
2006,12,13,07,57,8.80
2006,12,13,07,58,8.80
2006,12,13,07,59,8.80
2006,12,13,08,00,8.80
2006,12,13,08,01,8.90
2006,12,13,08,02,8.90
2006,12,13,08,03,8.90
2006,12,13,08,04,9.00
2006,12,13,08,05,9.00
2006,12,13,08,06,9.00
2006,12,13,08,07,9.10
2006,12,13,08,08,9.10
2006,12,13,08,09,9.10
2006,12,13,08,10,9.10
2006,12,13,08,11,9.10
2006,12,13,08,12,9.00
2006,12,13,08,13,9.00
2006,12,13,08,14,8.90
2006,12,13,08,15,8.80
2006,12,13,08,16,8.70
2006,12,13,08,17,8.70
2006,12,13,08,18,8.70
2006,12,13,08,19,8.70
2006,12,13,08,20,8.70
2006,12,13,08,21,8.60
2006,12,13,08,22,8.60
2006,12,13,08,23,8.60
2006,12,13,08,24,8.60
2006,12,13,08,25,8.60
2006,12,13,08,26,8.60
2006,12,13,08,27,8.60
2006,12,13,08,28,8.60
2006,12,13,08,29,8.60
2006,12,13,08,30,8.60
2006,12,13,08,31,8.60
2006,12,13,08,32,8.60
2006,12,13,08,33,8.70
2006,12,13,08,34,8.70
2006,12,13,08,35,8.80
2006,12,13,08,36,8.80
2006,12,13,08,37,8.90
2006,12,13,08,38,8.90
2006,12,13,08,39,8.90
2006,12,13,08,40,8.90
2006,12,13,08,41,8.90
2006,12,13,08,42,9.00
2006,12,13,08,43,8.90
2006,12,13,08,44,8.90
2006,12,13,08,45,8.90
2006,12,13,08,46,8.90
2006,12,13,08,47,8.90
2006,12,13,08,48,8.90
2006,12,13,08,49,8.90
2006,12,13,08,50,8.80
2006,12,13,08,51,8.80
2006,12,13,08,52,8.80
2006,12,13,08,53,8.80
2006,12,13,08,54,8.90
2006,12,13,08,55,8.90
2006,12,13,08,56,8.90
2006,12,13,08,57,8.80
2006,12,13,08,58,8.80
2006,12,13,08,59,8.80
2006,12,13,09,00,8.80
2006,12,13,09,01,8.80
2006,12,13,09,02,8.80
2006,12,13,09,03,8.80
2006,12,13,09,04,8.90
2006,12,13,09,05,8.90
2006,12,13,09,06,9.00
2006,12,13,09,07,9.10
2006,12,13,09,08,9.20
2006,12,13,09,09,9.20
2006,12,13,09,10,9.20
2006,12,13,09,11,9.30
2006,12,13,09,12,9.40
2006,12,13,09,13,9.40
2006,12,13,09,14,9.50
2006,12,13,09,15,9.50
2006,12,13,09,16,9.60
2006,12,13,09,17,9.60
2006,12,13,09,18,9.70
2006,12,13,09,19,9.70
2006,12,13,09,20,9.80
2006,12,13,09,21,9.80
2006,12,13,09,22,9.80
2006,12,13,09,23,9.80
2006,12,13,09,24,9.80
2006,12,13,09,25,9.70
2006,12,13,09,26,9.70
2006,12,13,09,27,9.50
2006,12,13,09,28,9.40
2006,12,13,09,29,9.40
2006,12,13,09,30,9.20
2006,12,13,09,31,9.10
2006,12,13,09,32,9.00
2006,12,13,09,33,9.00
2006,12,13,09,34,8.90
2006,12,13,09,35,8.70
2006,12,13,09,36,8.70
2006,12,13,09,37,8.60
2006,12,13,09,38,8.50
2006,12,13,09,39,8.40
2006,12,13,09,40,8.40
2006,12,13,09,41,8.40
2006,12,13,09,42,8.30
2006,12,13,09,43,8.30
2006,12,13,09,44,8.30
2006,12,13,09,45,8.30
2006,12,13,09,46,8.30
2006,12,13,09,47,8.30
2006,12,13,09,48,8.30
2006,12,13,09,49,8.30
2006,12,13,09,50,8.30
2006,12,13,09,51,8.30
2006,12,13,09,52,8.30
2006,12,13,09,53,8.30
2006,12,13,09,54,8.30
2006,12,13,09,55,8.30
2006,12,13,09,56,8.20
2006,12,13,09,57,8.20
2006,12,13,09,58,8.20
2006,12,13,09,59,8.20
2006,12,13,10,00,8.20
2006,12,13,10,01,8.20
2006,12,13,10,02,8.20
2006,12,13,10,03,8.20
2006,12,13,10,04,8.10
2006,12,13,10,05,8.10
2006,12,13,10,06,8.10
2006,12,13,10,07,8.10
2006,12,13,10,08,8.20
2006,12,13,10,09,8.20
2006,12,13,10,10,8.20
2006,12,13,10,11,8.20
2006,12,13,10,12,8.20
2006,12,13,10,13,8.20
2006,12,13,10,14,8.20
2006,12,13,10,15,8.20
2006,12,13,10,16,8.20
2006,12,13,10,17,8.20
2006,12,13,10,18,8.20
2006,12,13,10,19,8.20
2006,12,13,10,20,8.20
2006,12,13,10,21,8.20
2006,12,13,10,22,8.20
2006,12,13,10,23,8.20
2006,12,13,10,24,8.20
2006,12,13,10,25,8.20
2006,12,13,10,26,8.20
2006,12,13,10,27,8.20
2006,12,13,10,28,8.20
2006,12,13,10,29,8.20
2006,12,13,10,30,8.20
2006,12,13,10,31,8.20
2006,12,13,10,32,8.20
2006,12,13,10,33,8.20
2006,12,13,10,34,8.20
2006,12,13,10,35,8.20
2006,12,13,10,36,8.20
2006,12,13,10,37,8.20
2006,12,13,10,38,8.30
2006,12,13,10,39,8.30
2006,12,13,10,40,8.30
2006,12,13,10,41,8.30
2006,12,13,10,42,8.30
2006,12,13,10,43,8.40
2006,12,13,10,44,8.40
2006,12,13,10,45,8.40
2006,12,13,10,46,8.40
2006,12,13,10,47,8.40
2006,12,13,10,48,8.40
2006,12,13,10,49,8.50
2006,12,13,10,50,8.50
2006,12,13,10,51,8.60
2006,12,13,10,52,8.60
2006,12,13,10,53,8.70
2006,12,13,10,54,8.70
2006,12,13,10,55,8.70
2006,12,13,10,56,8.80
2006,12,13,10,57,8.90
2006,12,13,10,58,9.00
2006,12,13,10,59,9.10
2006,12,13,11,00,9.10
2006,12,13,11,01,9.10
2006,12,13,11,02,9.20
2006,12,13,11,03,9.10
2006,12,13,11,04,9.10
2006,12,13,11,05,9.10
2006,12,13,11,06,9.10
2006,12,13,11,07,9.10
2006,12,13,11,08,9.10
2006,12,13,11,09,9.20
2006,12,13,11,10,9.20
2006,12,13,11,11,9.30
2006,12,13,11,12,9.40
2006,12,13,11,13,9.50
2006,12,13,11,14,9.50
2006,12,13,11,15,9.60
2006,12,13,11,16,9.60
2006,12,13,11,17,9.70
2006,12,13,11,18,9.60
2006,12,13,11,19,9.60
2006,12,13,11,20,9.60
2006,12,13,11,21,9.50
2006,12,13,11,22,9.50
2006,12,13,11,23,9.50
2006,12,13,11,24,9.50
2006,12,13,11,25,9.40
2006,12,13,11,26,9.40
2006,12,13,11,27,9.40
2006,12,13,11,28,9.40
2006,12,13,11,29,9.30
2006,12,13,11,30,9.30
2006,12,13,11,31,9.30
2006,12,13,11,32,9.20
2006,12,13,11,33,9.20
2006,12,13,11,34,9.10
2006,12,13,11,35,9.00
2006,12,13,11,36,8.90
2006,12,13,11,37,8.70
2006,12,13,11,38,8.70
2006,12,13,11,39,8.60
2006,12,13,11,40,8.50
2006,12,13,11,41,8.50
2006,12,13,11,42,8.50
2006,12,13,11,43,8.40
2006,12,13,11,44,8.40
2006,12,13,11,45,8.30
2006,12,13,11,46,8.30
2006,12,13,11,47,8.30
2006,12,13,11,48,8.40
2006,12,13,11,49,8.40
2006,12,13,11,50,8.40
2006,12,13,11,51,8.50
2006,12,13,11,52,8.50
2006,12,13,11,53,8.60
2006,12,13,11,54,8.70
2006,12,13,11,55,8.70
2006,12,13,11,56,8.70
2006,12,13,11,57,8.70
2006,12,13,11,58,8.80
2006,12,13,11,59,8.80
2006,12,13,12,00,8.90
2006,12,13,12,01,9.00
2006,12,13,12,02,9.00
2006,12,13,12,03,9.10
2006,12,13,12,04,9.20
2006,12,13,12,05,9.20
2006,12,13,12,06,9.30
2006,12,13,12,07,9.30
2006,12,13,12,08,9.40
2006,12,13,12,09,9.40
2006,12,13,12,10,9.40
2006,12,13,12,11,9.40
2006,12,13,12,12,9.40
2006,12,13,12,13,9.50
2006,12,13,12,14,9.50
2006,12,13,12,15,9.50
2006,12,13,12,16,9.50
2006,12,13,12,17,9.50
2006,12,13,12,18,9.50
2006,12,13,12,19,9.50
2006,12,13,12,20,9.40
2006,12,13,12,21,9.40
2006,12,13,12,22,9.40
2006,12,13,12,23,9.30
2006,12,13,12,24,9.30
2006,12,13,12,25,9.20
2006,12,13,12,26,9.20
2006,12,13,12,27,9.20
2006,12,13,12,28,9.20
2006,12,13,12,29,9.20
2006,12,13,12,30,9.20
2006,12,13,12,31,9.20
2006,12,13,12,32,9.20
2006,12,13,12,33,9.20
2006,12,13,12,34,9.30
2006,12,13,12,35,9.30
2006,12,13,12,36,9.30
2006,12,13,12,37,9.40
2006,12,13,12,38,9.40
2006,12,13,12,39,9.40
2006,12,13,12,40,9.50
2006,12,13,12,41,9.50
2006,12,13,12,42,9.40
2006,12,13,12,43,9.40
2006,12,13,12,44,9.50
2006,12,13,12,45,9.40
2006,12,13,12,46,9.40
2006,12,13,12,47,9.40
2006,12,13,12,48,9.40
2006,12,13,12,49,9.50
2006,12,13,12,50,9.50
2006,12,13,12,51,9.60
2006,12,13,12,52,9.60
2006,12,13,12,53,9.60
2006,12,13,12,54,9.60
2006,12,13,12,55,9.60
2006,12,13,12,56,9.50
2006,12,13,12,57,9.50
2006,12,13,12,58,9.50
2006,12,13,12,59,9.50
2006,12,13,13,00,9.50
2006,12,13,13,01,9.50
2006,12,13,13,02,9.40
2006,12,13,13,03,9.40
2006,12,13,13,04,9.40
2006,12,13,13,05,9.30
2006,12,13,13,06,9.30
2006,12,13,13,07,9.30
2006,12,13,13,08,9.30
2006,12,13,13,09,9.30
2006,12,13,13,10,9.30
2006,12,13,13,11,9.30
2006,12,13,13,12,9.20
2006,12,13,13,13,9.20
2006,12,13,13,14,9.20
2006,12,13,13,15,9.20
2006,12,13,13,16,9.20
2006,12,13,13,17,9.20
2006,12,13,13,18,9.20
2006,12,13,13,19,9.10
2006,12,13,13,20,9.10
2006,12,13,13,21,9.10
2006,12,13,13,22,9.10
2006,12,13,13,23,9.10
2006,12,13,13,24,9.10
2006,12,13,13,25,9.10
2006,12,13,13,26,9.10
2006,12,13,13,27,9.10
2006,12,13,13,28,9.10
2006,12,13,13,29,9.10
2006,12,13,13,30,9.10
2006,12,13,13,31,9.10
2006,12,13,13,32,9.00
2006,12,13,13,33,9.00
2006,12,13,13,34,9.00
2006,12,13,13,35,9.00
2006,12,13,13,36,8.90
2006,12,13,13,37,8.90
2006,12,13,13,38,9.00
2006,12,13,13,39,9.00
2006,12,13,13,40,9.00
2006,12,13,13,41,9.00
2006,12,13,13,42,9.00
2006,12,13,13,43,9.00
2006,12,13,13,44,9.10
2006,12,13,13,45,9.10
2006,12,13,13,46,9.20
2006,12,13,13,47,9.20
2006,12,13,13,48,9.20
2006,12,13,13,49,9.20
2006,12,13,13,50,9.20
2006,12,13,13,51,9.30
2006,12,13,13,52,9.30
2006,12,13,13,53,9.40
2006,12,13,13,54,9.40
2006,12,13,13,55,9.40
2006,12,13,13,56,9.30
2006,12,13,13,57,9.30
2006,12,13,13,58,9.20
2006,12,13,13,59,9.20
2006,12,13,14,00,9.20
2006,12,13,14,01,9.10
2006,12,13,14,02,9.10
2006,12,13,14,03,9.00
2006,12,13,14,04,9.00
2006,12,13,14,05,8.90
2006,12,13,14,06,8.90
2006,12,13,14,07,8.90
2006,12,13,14,08,8.90
2006,12,13,14,09,8.90
2006,12,13,14,10,8.80
2006,12,13,14,11,8.80
2006,12,13,14,12,8.80
2006,12,13,14,13,8.80
2006,12,13,14,14,8.80
2006,12,13,14,15,8.80
2006,12,13,14,16,8.80
2006,12,13,14,17,8.80
2006,12,13,14,18,8.80
2006,12,13,14,19,8.80
2006,12,13,14,20,8.80
2006,12,13,14,21,8.80
2006,12,13,14,22,8.80
2006,12,13,14,23,8.70
2006,12,13,14,24,8.80
2006,12,13,14,25,8.80
2006,12,13,14,26,8.80
2006,12,13,14,27,8.80
2006,12,13,14,28,8.80
2006,12,13,14,29,8.80
2006,12,13,14,30,8.80
2006,12,13,14,31,8.80
2006,12,13,14,32,8.80
2006,12,13,14,33,8.70
2006,12,13,14,34,8.70
2006,12,13,14,35,8.80
2006,12,13,14,36,8.80
2006,12,13,14,37,8.80
2006,12,13,14,38,8.80
2006,12,13,14,39,8.70
2006,12,13,14,40,8.70
2006,12,13,14,41,8.70
2006,12,13,14,42,8.70
2006,12,13,14,43,8.70
2006,12,13,14,44,8.70
2006,12,13,14,45,8.60
2006,12,13,14,46,8.60
2006,12,13,14,47,8.60
2006,12,13,14,48,8.60
2006,12,13,14,49,8.50
2006,12,13,14,50,8.50
2006,12,13,14,51,8.50
2006,12,13,14,52,8.50
2006,12,13,14,53,8.40
2006,12,13,14,54,8.40
2006,12,13,14,55,8.40
2006,12,13,14,56,8.40
2006,12,13,14,57,8.30
2006,12,13,14,58,8.30
2006,12,13,14,59,8.20
2006,12,13,15,00,8.10
2006,12,13,15,01,8.00
2006,12,13,15,02,7.80
2006,12,13,15,03,7.60
2006,12,13,15,04,7.50
2006,12,13,15,05,7.30
2006,12,13,15,06,7.10
2006,12,13,15,07,7.00
2006,12,13,15,08,6.90
2006,12,13,15,09,6.80
2006,12,13,15,10,6.60
2006,12,13,15,11,6.50
2006,12,13,15,12,6.30
2006,12,13,15,13,6.20
2006,12,13,15,14,6.20
2006,12,13,15,15,6.20
2006,12,13,15,16,6.10
2006,12,13,15,17,6.10
2006,12,13,15,18,6.00
2006,12,13,15,19,6.00
2006,12,13,15,20,6.00
2006,12,13,15,21,5.90
2006,12,13,15,22,5.90
2006,12,13,15,23,6.00
2006,12,13,15,24,6.00
2006,12,13,15,25,6.00
2006,12,13,15,26,6.00
2006,12,13,15,27,6.00
2006,12,13,15,28,6.00
2006,12,13,15,29,6.10
2006,12,13,15,30,6.10
2006,12,13,15,31,6.10
2006,12,13,15,32,6.10
2006,12,13,15,33,6.10
2006,12,13,15,34,6.10
2006,12,13,15,35,6.20
2006,12,13,15,36,6.20
2006,12,13,15,37,6.20
2006,12,13,15,38,6.20
2006,12,13,15,39,6.20
2006,12,13,15,40,6.20
2006,12,13,15,41,6.20
2006,12,13,15,42,6.20
2006,12,13,15,43,6.20
2006,12,13,15,44,6.20
2006,12,13,15,45,6.20
2006,12,13,15,46,6.20
2006,12,13,15,47,6.20
2006,12,13,15,48,6.30
2006,12,13,15,49,6.30
2006,12,13,15,50,6.30
2006,12,13,15,51,6.30
2006,12,13,15,52,6.40
2006,12,13,15,53,6.40
2006,12,13,15,54,6.40
2006,12,13,15,55,6.40
2006,12,13,15,56,6.40
2006,12,13,15,57,6.40
2006,12,13,15,58,6.50
2006,12,13,15,59,6.60
2006,12,13,16,00,6.60
2006,12,13,16,01,6.60
2006,12,13,16,02,6.60
2006,12,13,16,03,6.60
2006,12,13,16,04,6.60
2006,12,13,16,05,6.60
2006,12,13,16,06,6.60
2006,12,13,16,07,6.60
2006,12,13,16,08,6.60
2006,12,13,16,09,6.60
2006,12,13,16,10,6.60
2006,12,13,16,11,6.70
2006,12,13,16,12,6.60
2006,12,13,16,13,6.60
2006,12,13,16,14,6.70
2006,12,13,16,15,6.70
2006,12,13,16,16,6.70
2006,12,13,16,17,6.80
2006,12,13,16,18,6.80
2006,12,13,16,19,6.80
2006,12,13,16,20,6.80
2006,12,13,16,21,6.80
2006,12,13,16,22,6.80
2006,12,13,16,23,6.80
2006,12,13,16,24,6.80
2006,12,13,16,25,6.80
2006,12,13,16,26,6.80
2006,12,13,16,27,6.80
2006,12,13,16,28,6.90
2006,12,13,16,29,6.90
2006,12,13,16,30,6.90
2006,12,13,16,31,6.90
2006,12,13,16,32,6.90
2006,12,13,16,33,6.90
2006,12,13,16,34,6.90
2006,12,13,16,35,6.90
2006,12,13,16,36,6.90
2006,12,13,16,37,6.90
2006,12,13,16,38,6.90
2006,12,13,16,39,6.90
2006,12,13,16,40,6.90
2006,12,13,16,41,6.90
2006,12,13,16,42,6.90
2006,12,13,16,43,6.90
2006,12,13,16,44,6.90
2006,12,13,16,45,7.00
2006,12,13,16,46,7.00
2006,12,13,16,47,7.00
2006,12,13,16,48,7.10
2006,12,13,16,49,7.10
2006,12,13,16,50,7.20
2006,12,13,16,51,7.20
2006,12,13,16,52,7.20
2006,12,13,16,53,7.10
2006,12,13,16,54,7.10
2006,12,13,16,55,7.00
2006,12,13,16,56,6.90
2006,12,13,16,57,6.80
2006,12,13,16,58,6.80
2006,12,13,16,59,6.70
2006,12,13,17,00,6.60
2006,12,13,17,01,6.60
2006,12,13,17,02,6.50
2006,12,13,17,03,6.40
2006,12,13,17,04,6.20
2006,12,13,17,05,6.20
2006,12,13,17,06,6.10
2006,12,13,17,07,5.90
2006,12,13,17,08,5.80
2006,12,13,17,09,5.80
2006,12,13,17,10,5.70
2006,12,13,17,11,5.70
2006,12,13,17,12,5.60
2006,12,13,17,13,5.50
2006,12,13,17,14,5.40
2006,12,13,17,15,5.20
2006,12,13,17,16,5.10
2006,12,13,17,17,5.00
2006,12,13,17,18,4.90
2006,12,13,17,19,4.80
2006,12,13,17,20,4.70
2006,12,13,17,21,4.60
2006,12,13,17,22,4.60
2006,12,13,17,23,4.60
2006,12,13,17,24,4.60
2006,12,13,17,25,4.50
2006,12,13,17,26,4.50
2006,12,13,17,27,4.50
2006,12,13,17,28,4.50
2006,12,13,17,29,4.50
2006,12,13,17,30,4.50
2006,12,13,17,31,4.40
2006,12,13,17,32,4.40
2006,12,13,17,33,4.40
2006,12,13,17,34,4.40
2006,12,13,17,35,4.50
2006,12,13,17,36,4.50
2006,12,13,17,37,4.40
2006,12,13,17,38,4.40
2006,12,13,17,39,4.40
2006,12,13,17,40,4.40
2006,12,13,17,41,4.40
2006,12,13,17,42,4.40
2006,12,13,17,43,4.40
2006,12,13,17,44,4.40
2006,12,13,17,45,4.40
2006,12,13,17,46,4.40
2006,12,13,17,47,4.40
2006,12,13,17,48,4.40
2006,12,13,17,49,4.40
2006,12,13,17,50,4.40
2006,12,13,17,51,4.40
2006,12,13,17,52,4.40
2006,12,13,17,53,4.40
2006,12,13,17,54,4.40
2006,12,13,17,55,4.40
2006,12,13,17,56,4.40
2006,12,13,17,57,4.40
2006,12,13,17,58,4.30
2006,12,13,17,59,4.40
2006,12,13,18,00,4.40
2006,12,13,18,01,4.40
2006,12,13,18,02,4.50
2006,12,13,18,03,4.50
2006,12,13,18,04,4.60
2006,12,13,18,05,4.60
2006,12,13,18,06,4.60